Regional Weather Roundup
Issued by NWS

Home | Current Version | Previous Version | Text Only | Print | Product List | Glossary On
Versions: 1 2 3 4 5 6 7 8 9 10 11 12 13 14 15 16 17 18 19 20 21 22 23 24 25 26 27 28 29 30 31 32 33 34 35 36 37 38 39 40 41 42 43 44 45 46 47 48 49 50
000
ASUS44 KBMX 041310
RWRAL

ALABAMA REGIONAL WEATHER ROUNDUP
NATIONAL WEATHER SERVICE BIRMINGHAM AL
700 AM CST SUN DEC 04 2016

NOTE: "FAIR" INDICATES FEW OR NO CLOUDS BELOW 12,000 FEET
WITH NO SIGNIFICANT WEATHER AND/OR OBSTRUCTIONS TO VISIBILITY.

THE REMARK "TC" DENOTES TEMPERATURE IN DEGREES CELSIUS.

ALZ001>011-014-016>018-020-041400-
NORTH ALABAMA

CITY           SKY/WX    TMP DP  RH WIND       PRES   REMARKS
MUSCLE SHOALS  LGT RAIN  46  43  89 E13       30.04F
HUNTSVILLE     RAIN      46  43  89 E8        30.06S
DECATUR        LGT RAIN  45  44  97 E7        30.06R FOG
HALEYVILLE     RAIN      44  42  93 VRB5      30.03S FOG
GADSDEN        LGT RAIN  45  44  97 E13       30.08F FOG
$$

ALZ012-013-022-023-030>036-040>044-041400-
WEST CENTRAL ALABAMA

CITY           SKY/WX    TMP DP  RH WIND       PRES   REMARKS
TUSCALOOSA     LGT RAIN  48  46  93 NE7       30.02R
$$

ALZ015-024>027-033>036-040>044-041400-
CENTRAL ALABAMA

CITY           SKY/WX    TMP DP  RH WIND       PRES   REMARKS
BIRMINGHAM     LGT RAIN  47  45  93 E9        30.05R
MONTGOMERY     CLOUDY    51  46  83 E8        30.04R
SHELBY CO ARPT LGT RAIN  48  47  96 VRB5      30.01S
MAXWELL AFB    CLOUDY    49  47  95 NE8       30.03R
GREENVILLE     CLOUDY    54  50  86 E5        29.99F
$$

ALZ019-021-028-029-037-038-045>048-041400-
EAST CENTRAL ALABAMA

CITY           SKY/WX    TMP DP  RH WIND       PRES   REMARKS
ANNISTON       LGT RAIN  46  44  93 E8        30.07F
ALEXANDER CITY HVY RAIN  50  48  95 E9        30.05F
AUBURN         LGT RAIN  47  46  97 E13G21    30.07S FOG
$$

ALZ051>064-041400-
SOUTHWEST ALABAMA

CITY           SKY/WX    TMP DP  RH WIND       PRES   REMARKS
MOBILE         LGT RAIN  59  58  96 E8        29.93S FOG
BROOKLEY FIELD HVY RAIN  59  58  96 CALM      29.94S FOG
EVERGREEN      LGT RAIN  55  51  86 CALM      30.00S
$$

ALZ049-050-065>069-041400-
SOUTHEAST ALABAMA

CITY           SKY/WX    TMP DP  RH WIND       PRES   REMARKS
DOTHAN         CLOUDY    57  52  83 SE10      30.07S
OZARK          CLOUDY    59  51  76 SE12      30.03S
TROY           CLOUDY    55  53  93 E5        30.03R
EUFAULA        CLOUDY    58  49  72 E8        30.06S
$$



USA.gov is the U.S. government's official web portal to all federal, state and local government web resources and services.